QLK321 YSSY-YSCB

Flight info

Callsign QLK321
Flight time N/A
Altitude 16000
Route GROOK1/16R WOL H65 CB
Aircraft AT76/M-SDFGIRY/S

Departure

Time N/A
Airport Sydney Kingsford Smith International Airport (YSSY)

Arrival

Time 2026-05-05 07:52
Airport Canberra Airport (YSCB)
Time Latitude Longitude Altitude Speed Heading
2026-05-05 07:36 -35.10439 149.63405 16190 ft 243 kts 242°
2026-05-05 07:36 -35.11278 149.61600 16191 ft 243 kts 242°
2026-05-05 07:36 -35.12107 149.59814 16192 ft 243 kts 242°
2026-05-05 07:36 -35.12943 149.58011 16192 ft 243 kts 242°
2026-05-05 07:37 -35.13782 149.56203 16193 ft 243 kts 242°
2026-05-05 07:37 -35.14607 149.54420 16186 ft 244 kts 242°
2026-05-05 07:37 -35.15445 149.52609 16187 ft 243 kts 242°
2026-05-05 07:37 -35.16284 149.50796 16185 ft 244 kts 242°
2026-05-05 07:38 -35.17111 149.49008 16183 ft 244 kts 242°
2026-05-05 07:38 -35.17950 149.47195 16176 ft 244 kts 242°
2026-05-05 07:38 -35.18788 149.45403 16176 ft 244 kts 241°
2026-05-05 07:38 -35.19817 149.43756 16168 ft 246 kts 219°
2026-05-05 07:39 -35.21442 149.43046 16114 ft 259 kts 187°
2026-05-05 07:39 -35.23259 149.43455 15896 ft 271 kts 167°
2026-05-05 07:39 -35.25052 149.44206 15684 ft 278 kts 165°
2026-05-05 07:39 -35.26894 149.45042 15460 ft 284 kts 163°
2026-05-05 07:40 -35.28734 149.45903 15246 ft 287 kts 163°
2026-05-05 07:40 -35.30610 149.46787 15024 ft 288 kts 164°
2026-05-05 07:40 -35.32548 149.47421 14807 ft 288 kts 171°
2026-05-05 07:40 -35.34504 149.47913 14603 ft 289 kts 173°
2026-05-05 07:41 -35.36496 149.48213 14384 ft 287 kts 180°
2026-05-05 07:41 -35.38503 149.48286 14177 ft 288 kts 182°
2026-05-05 07:41 -35.40520 149.48302 13971 ft 289 kts 183°
2026-05-05 07:41 -35.42508 149.48293 13735 ft 289 kts 183°
2026-05-05 07:42 -35.44536 149.48272 13495 ft 289 kts 184°
2026-05-05 07:42 -35.46548 149.48243 13261 ft 288 kts 184°
2026-05-05 07:42 -35.48532 149.48206 13034 ft 287 kts 184°
2026-05-05 07:42 -35.50543 149.48163 12795 ft 287 kts 184°
2026-05-05 07:43 -35.52504 149.48116 12554 ft 280 kts 184°
2026-05-05 07:43 -35.54425 149.48059 12266 ft 269 kts 185°
2026-05-05 07:43 -35.56156 149.47433 11920 ft 257 kts 214°
2026-05-05 07:43 -35.57267 149.45805 11607 ft 253 kts 246°
2026-05-05 07:44 -35.57453 149.43674 11282 ft 255 kts 278°
2026-05-05 07:44 -35.56678 149.41713 10965 ft 257 kts 302°
2026-05-05 07:44 -35.55892 149.39834 10654 ft 247 kts 278°
2026-05-05 07:44 -35.55764 149.37755 10363 ft 242 kts 270°
2026-05-05 07:45 -35.55671 149.35680 10071 ft 243 kts 271°
2026-05-05 07:45 -35.55473 149.33627 9745 ft 246 kts 276°
2026-05-05 07:45 -35.55146 149.31545 9410 ft 248 kts 279°
2026-05-05 07:45 -35.54767 149.29471 9070 ft 247 kts 280°
2026-05-05 07:46 -35.54385 149.27410 8745 ft 245 kts 280°
2026-05-05 07:46 -35.54017 149.25413 8435 ft 239 kts 279°
2026-05-05 07:46 -35.53673 149.23432 8132 ft 234 kts 279°
2026-05-05 07:46 -35.53183 149.21553 7810 ft 231 kts 300°
2026-05-05 07:47 -35.51980 149.20337 7565 ft 223 kts 334°
2026-05-05 07:47 -35.50552 149.19794 7415 ft 211 kts 349°
2026-05-05 07:47 -35.49123 149.19540 7191 ft 205 kts 353°
2026-05-05 07:47 -35.47689 149.19393 6811 ft 208 kts 357°
2026-05-05 07:48 -35.46259 149.19360 6419 ft 206 kts
2026-05-05 07:48 -35.44847 149.19380 5991 ft 200 kts
2026-05-05 07:48 -35.43487 149.19409 5612 ft 182 kts
2026-05-05 07:48 -35.42279 149.19432 5259 ft 171 kts
2026-05-05 07:49 -35.41108 149.19456 4904 ft 163 kts
2026-05-05 07:49 -35.40011 149.19467 4554 ft 153 kts 360°
2026-05-05 07:49 -35.38983 149.19471 4227 ft 143 kts 360°
2026-05-05 07:49 -35.38023 149.19474 3932 ft 135 kts 359°
2026-05-05 07:50 -35.37105 149.19491 3646 ft 127 kts 358°
2026-05-05 07:50 -35.36237 149.19501 3396 ft 122 kts 355°
2026-05-05 07:50 -35.35370 149.19478 2994 ft 129 kts 354°
2026-05-05 07:50 -35.34486 149.19413 2659 ft 127 kts 357°
2026-05-05 07:51 -35.33625 149.19400 2450 ft 120 kts
2026-05-05 07:51 -35.32775 149.19413 2227 ft 121 kts 360°
2026-05-05 07:51 -35.31993 149.19409 1988 ft 121 kts
2026-05-05 07:51 -35.31462 149.19443 1922 ft 114 kts
2026-05-05 07:52 -35.30901 149.19449 1876 ft 62 kts 355°
2026-05-05 07:52 -35.30676 149.19372 1873 ft 27 kts 280°
2026-05-05 07:52 -35.30663 149.19201 1874 ft 25 kts 319°
2026-05-05 07:52 -35.30564 149.19061 1876 ft 10 kts 308°
2026-05-05 07:53 -35.30540 149.19025 1876 ft 2 kts 308°
2026-05-05 07:53 -35.30517 149.18990 1876 ft 4 kts 309°
2026-05-05 07:54 -35.30514 149.18986 1876 ft 8 kts 309°
2026-05-05 07:54 -35.30499 149.18963 1874 ft 0 kts 309°
2026-05-05 07:55 -35.30509 149.18919 1874 ft 2 kts 211°
2026-05-05 07:55 -35.30554 149.18874 1876 ft 0 kts 214°